Flag for Canada Weather past 2 weeks in Norfolk, Ontario, Canada

Now
5 °F

Frigid.


Feels Like: -5 °F
Forecast: -10 / 9 °F
Wind: 6 mph from North

Location: Delhi CS

Current Time: Feb 26, 2015 at 11:10:06 PM

Latest Report: Feb 26, 2015 at 10:00 PM


Visibility: N/A

Pressure: 30.29 "Hg

Humidity: 68%

Dew point: -3 °F

Location of NorfolkLocation

Historic Weather in Norfolk — Graph

°F

Norfolk temperature yesterday

Maximum temperature yesterday: 21 °F (at 3:00 AM)
Minimum temperature yesterday: 2 °F (at 10:00 PM)
Average temperature yesterday: 10 °F

Past Weeks' High & Low Weather Summary

 TemperatureHumidityPressure
High28 °F (Feb 11, 9:00 PM)100% (Feb 18, 3:00 AM)30.63 "Hg (Feb 18, 3:00 AM)
Low-28 °F (Feb 16, 7:00 AM)42% (Feb 20, 12:00 PM)29.57 "Hg (Feb 14, 10:00 AM)
Average4 °F76%30.11 "Hg
* Reported Feb 11 9:00 PM — Feb 26 9:00 PM, Norfolk, Weather by CustomWeather, © 2015

Note: Actual official high and low records may vary slightly from our data, if they occured in-between our weather recording intervals... More about our weather records

Advertising

Norfolk weather history for previous 24 hours

 ConditionsComfort  
Time TempWeatherWind HumidityBarometerVisibility
9:00 PM
Thu, Feb 26
5 °FFrigid.5 mph67%30.27 "HgN/A
8:00 PM5 °FFrigid.3 mph63%30.24 "HgN/A
7:00 PM6 °FFrigid.5 mph65%30.22 "HgN/A
6:00 PM10 °FFrigid.5 mph63%30.19 "HgN/A
5:00 PM10 °FFrigid.7 mph74%30.17 "HgN/A
4:00 PM10 °FCold.5 mph72%30.16 "HgN/A
3:00 PM10 °FFrigid.8 mph78%30.14 "HgN/A
2:00 PM10 °FFrigid.8 mph79%30.14 "HgN/A
1:00 PM10 °FFrigid.5 mph76%30.14 "HgN/A
12:00 PM9 °FFrigid.6 mph75%30.14 "HgN/A
11:00 AM10 °FFrigid.5 mph61%30.12 "HgN/A
10:00 AM9 °FFrigid.5 mph60%30.13 "HgN/A
9:00 AM6 °FFrigid.3 mph77%30.13 "HgN/A
8:00 AM5 °FFrigid.3 mph74%30.12 "HgN/A
7:00 AM4 °FFrigid.2 mph76%30.10 "HgN/A
6:00 AM4 °FFrigid.3 mph76%30.10 "HgN/A
5:00 AM4 °FFrigid.6 mph74%30.09 "HgN/A
4:00 AM3 °FFrigid.3 mph76%30.09 "HgN/A
3:00 AM3 °FFrigid.5 mph75%30.09 "HgN/A
2:00 AM-1 °FFrigid.2 mph82%30.09 "HgN/A
1:00 AM-3 °FFrigid.1 mph83%30.11 "HgN/A
12:00 AM0 °FFrigid.2 mph74%30.11 "HgN/A
11:00 PM
Wed, Feb 25
4 °FFrigid.2 mph70%30.09 "HgN/A
Weather by CustomWeather, © 2015

See weather overviewHow to use our weather pages